Weather History for Poplar Bluff, MO

Change the Weather History Date:

Friday, February 15, 2013

  Actual Average Record
Temperature  
Mean Temperature 40 °F -  
Max Temperature 46 °F 48 °F 78 °F (1945)
Min Temperature 30 °F 29 °F 11 °F (1936)
Degree Days  
Heating Degree Days 26    
Moisture  
Dew Point 25 °F    
Average Humidity 51    
Maximum Humidity 61    
Minimum Humidity 34    
Precipitation  
Precipitation 0.00 in - - ()
Sea Level Pressure  
Sea Level Pressure 30.19 in    
Wind  
Wind Speed 7 mph (NNW)    
Max Wind Speed 20 mph    
Max Gust Speed 20 mph    
Visibility 10 miles    
Events      
Averages and records for this station are not official NWS values.
T = Trace of Precipitation, MM = Missing Value Source: NWS Daily Summary

Daily Weather History Graph

Daily Weather History Graph

Search for Another Location

Airport:

Trip Planner

Search our weather history database for the weather conditions in past years. The results will help you decide how hot, cold, wet, or windy it might be!

Date:

Astronomy

Feb. 15, 2013 Rise Set
Actual Time 6:49 AM CST 5:42 PM CST
Civil Twilight 6:22 AM CST 6:08 PM CST
Nautical Twilight 5:52 AM CST 6:38 PM CST
Astronomical Twilight 5:22 AM CST 7:08 PM CST
Moon 9:35 AM CST (2/15) 11:32 PM CST (2/15)
Length of Visible Light 11h 45m
Length of Day
10h 52m
Waxing Crescent, 30% of the Moon is Illuminated
Feb 15
Waxing Crescent
Feb 17
First Quarter
Feb 25
Full
Mar 4
Last Quarter
Mar 11
New

Hourly Weather History & Observations

Time (CST) Temp. Windchill Dew Point Humidity Pressure Visibility Wind Dir Wind Speed Gust Speed Precip Events Conditions
12:53 AM 46.0 °F 44.8 °F 33.1 °F 61% 30.08 in 10.0 mi NNW 3.5 mph - N/A   Mostly Cloudy
1:53 AM 46.0 °F 43.9 °F 33.1 °F 61% 30.08 in 10.0 mi NW 4.6 mph - N/A   Overcast
2:53 AM 46.9 °F - 30.9 °F 54% 30.10 in 10.0 mi WNW 4.6 mph - N/A   Overcast
3:53 AM 46.0 °F 42.5 °F 30.9 °F 56% 30.11 in 10.0 mi NW 6.9 mph - N/A   Overcast
4:53 AM 45.0 °F 43.5 °F 30.9 °F 58% 30.13 in 10.0 mi WNW 3.5 mph - N/A   Overcast
5:53 AM 44.1 °F 41.5 °F 30.0 °F 58% 30.16 in 10.0 mi WNW 4.6 mph - N/A   Overcast
6:53 AM 43.0 °F - 28.9 °F 58% 30.16 in 10.0 mi Calm Calm - N/A   Mostly Cloudy
7:53 AM 43.0 °F 37.2 °F 28.9 °F 58% 30.19 in 10.0 mi NW 10.4 mph - N/A   Clear
8:53 AM 45.0 °F 39.7 °F 28.9 °F 53% 30.22 in 10.0 mi NNW 10.4 mph - N/A   Clear
9:53 AM 46.0 °F 38.5 °F 28.0 °F 50% 30.22 in 10.0 mi NNW 19.6 mph - N/A   Clear
10:53 AM 46.9 °F - 28.9 °F 50% 30.22 in 10.0 mi NW 15.0 mph 19.6 mph N/A   Partly Cloudy
11:53 AM 45.0 °F 37.9 °F 28.0 °F 52% 30.22 in 10.0 mi NW 16.1 mph - N/A   Mostly Cloudy
12:53 PM 46.0 °F 39.0 °F 27.0 °F 47% 30.20 in 10.0 mi NNW 17.3 mph - N/A   Partly Cloudy
1:53 PM 46.0 °F 41.4 °F 25.0 °F 44% 30.19 in 10.0 mi NNW 9.2 mph - N/A   Scattered Clouds
2:53 PM 46.9 °F - 23.0 °F 39% 30.19 in 10.0 mi NNW 9.2 mph - N/A   Overcast
3:53 PM 46.0 °F 41.4 °F 23.0 °F 40% 30.19 in 10.0 mi North 9.2 mph - N/A   Mostly Cloudy
4:53 PM 46.0 °F 41.4 °F 19.0 °F 34% 30.20 in 10.0 mi NW 9.2 mph - N/A   Clear
5:53 PM 42.1 °F 36.6 °F 17.1 °F 37% 30.22 in 10.0 mi NNW 9.2 mph - N/A   Clear
6:53 PM 39.0 °F 34.8 °F 19.9 °F 46% 30.24 in 10.0 mi NNW 5.8 mph - N/A   Clear
7:53 PM 37.0 °F 32.4 °F 18.0 °F 46% 30.24 in 10.0 mi NNW 5.8 mph - N/A   Clear
8:53 PM 34.0 °F 31.0 °F 21.0 °F 59% 30.26 in 10.0 mi North 3.5 mph - N/A   Clear
9:53 PM 33.1 °F 30.0 °F 16.0 °F 50% 30.26 in 10.0 mi NE 3.5 mph - N/A   Partly Cloudy
10:53 PM 34.0 °F - 17.1 °F 50% 30.24 in 10.0 mi Calm Calm - N/A   Scattered Clouds
11:53 PM 30.9 °F - 18.0 °F 59% 30.24 in 10.0 mi Calm Calm - N/A   Clear